Preview of NWS' New Version of Forecast
This preview is not operational and should not be used for support decisions.

Regional Weather Roundup (RWR)

Issued by Gray - Portland, ME (GYX)

                            
576 
ASUS41 KGYX 211610
RWRGYX
WEATHER ROUNDUP FOR MAINE AND NEW HAMPSHIRE
NATIONAL WEATHER SERVICE GRAY ME
1200 PM EDT SAT APR 21 2018

MEZ002-005-006-010-012-015-018-020-021-024-026-027-029-211700-
MAINE
  
CITY           SKY/WX    TMP DP  RH WIND       PRES   REMARKS
PORTLAND       FAIR      52  24  33 NW15G23   30.23F                  
SANFORD        FAIR      51  22  31 W9        30.23F                  
BAR HARBOR     CLOUDY    45  27  49 NW9       30.16F                  
WISCASSET      CLOUDY    50  23  34 VRB7      30.21F                  
ROCKLAND       CLOUDY    47  25  42 W15       30.19S                  
FRYEBURG       PTSUNNY   50  24  36 NW7G17    30.22F                  
LEWISTONAUBURN CLOUDY    49  24  37 W14       30.21F                  
AUGUSTA        CLOUDY    48  23  37 NW16G23   30.20F                  
WATERVILLE     CLOUDY    48  23  37 NW13G20   30.17S                  
BANGOR         CLOUDY    46  25  43 NW15G23   30.17F                  
GREENVILLE       N/A     38  23  55 NW17G24   30.11F                  
MILLINOCKET    CLOUDY    46  22  38 N17G24    30.14F                  
HOULTON        FAIR      44  20  38 NW12G22   30.08F                  
PRESQUE ISLE   FAIR      42  20  41 NW17G24   30.10F                  
FRENCHVILLE    FAIR      40  17  39 NW18G25   30.08F                  
CARIBOU        FAIR      41  19  41 NW14G23   30.08F                  
$$

NHZ002-005-008-009-011-012-014-211700-
NEW HAMPSHIRE
  
CITY           SKY/WX    TMP DP  RH WIND       PRES   REMARKS
PORTSMOUTH     MOSUNNY   53  22  29 NW12G21   30.22F                  
ROCHESTER      FAIR      52  24  33 NW17G26   30.23F                  
NASHUA         FAIR      52  22  30 N8G16     30.27F                  
MANCHESTER     FAIR      54  19  25 NW17G23   30.25F                  
CONCORD        FAIR      52  22  30 NW16G28   30.26F                  
LACONIA        FAIR      48  20  32 NW15G26   30.25F                  
PLYMOUTH       PTSUNNY   49  22  34 W10G18    30.26S                  
BERLIN         CLOUDY    45  23  42 NW10G21   30.22S                  
WHITEFIELD     FAIR      48  22  35 NW15G22   30.23F                  
JAFFREY        FAIR      49  23  36 N10G21    30.26F                  
KEENE          FAIR      53  21  28 N13G22    30.29F                  
LEBANON        FAIR      51  21  30 W12G20    30.27F                  
MT WASHINGTON  BLWGSNOW  18  18 100 NW49G63     N/A  VSB 1/16WCI  -6  
$$

VTZ005-007-008-211700-
VERMONT
  
CITY           SKY/WX    TMP DP  RH WIND       PRES   REMARKS
ST JOHNSBURY     N/A     48  20  32 MISG      30.25F                  
MONTPELIER     FAIR      45  23  42 NW14      30.31F                  
BURLINGTON     FAIR      50  23  34 N8G21     30.32F                  
$$

MAZ007-012-024-CTZ003-RIZ002-NYZ038-NYZ072-211700-
SOUTHERN NEW ENGLAND AND NY
  
CITY           SKY/WX    TMP DP  RH WIND       PRES   REMARKS
BOSTON         FAIR      53  23  31 NW13G21   30.27F                  
WORCESTER      FAIR      49  23  36 W12       30.27F                  
NANTUCKET      FAIR      50  27  40 NW12      30.29F                  
PROVIDENCE     FAIR      54  26  34 NW14G22   30.30F                  
HARTFORD       FAIR      54  21  27 NW12G23   30.31F                  
ALBANY         FAIR      52  24  33 W13       30.36F                  
NEW YORK CITY  FAIR      54  24  31 NW12G18   30.37F                  
$$

ANZ081-ANZ082-ANZ150-NHZ014-MEZ023>029-211700-
COASTAL MARINE OBSERVATIONS
  
STATION/POSITION TIME  TEMP    WIND        PRES    WAVE
                       AIR SEA DIR/SP/G            HT/PER
                 (UTC) (F)     (DEG/KT/KT) (MB)    (FT/S)
MOUNT DESERT ROC 1600   42     260/ 11/ 13 1021.7F
MATINICUS ROCK   1600   43     260/  8/  8 1022.2F
ISLE OF SHOALS   1600   47     310/  8/  9 1023.9F
JEFFREYS LEDGE   1536      41                N/A     2/ 3
CASHES LEDGE BUO 1550   44 41              1023.7F   3/ 5
$$

.............KEY..............
   WCI - WIND CHILL
   TC  - TEMPERATURE IN CELSIUS
   VSB - VISIBILITY IN MILES
   HX  - HEAT INDEX
   FAIR- INDICATES FEW OR NO CLOUDS BELOW 12,000 FT, WITH NO 
         SIGNIFICANT WEATHER AND/OR OBSTRUCTIONS TO VISIBILITY.